Weather History for KHDO - July, 2013

Change the Weather History Date:

Monday, July 15, 2013

  Actual Average Record
Temperature  
Mean Temperature 80 °F -  
Max Temperature 86 °F 93 °F 105 °F (2000)
Min Temperature 77 °F 70 °F 62 °F (2004)
Cooling Degree Days 16    
Growing Degree Days 30 (Base 50)    
Moisture  
Dew Point 71 °F    
Average Humidity 73    
Maximum Humidity 79    
Minimum Humidity 61    
Precipitation  
Precipitation 0.01 in - - ()
Sea Level Pressure  
Sea Level Pressure 29.91 in    
Wind  
Wind Speed 10 mph (ESE)    
Max Wind Speed 14 mph    
Max Gust Speed 18 mph    
Visibility 10 miles    
Events Rain    
Averages and records for this station are not official NWS values.
T = Trace of Precipitation, MM = Missing Value Source: NWS Daily Summary

Daily Weather History Graph

Daily Weather History Graph

Search for Another Location

Airport or City:

Trip Planner

Search our weather history database for the weather conditions in past years. The results will help you decide how hot, cold, wet, or windy it might be!

Date:

Astronomy

Jul. 15, 2013 Rise Set
Actual Time 6:47 AM CDT 8:37 PM CDT
Civil Twilight 6:20 AM CDT 9:04 PM CDT
Nautical Twilight 5:48 AM CDT 9:36 PM CDT
Astronomical Twilight 5:14 AM CDT 10:10 PM CDT
Moon 1:30 PM CDT (7/15) 12:26 AM CDT (7/15)
Length of Visible Light 14h 43m
Length of Day
13h 50m
Waxing Crescent, 45% of the Moon is Illuminated
Jul 15
Waxing Crescent
Jul 15
First Quarter
Jul 22
Full
Jul 29
Last Quarter
Aug 6
New

Hourly Weather History & Observations

Time (CDT) Temp. Heat Index Dew Point Humidity Pressure Visibility Wind Dir Wind Speed Gust Speed Precip Events Conditions
12:51 AM 81.0 °F 84.1 °F 69.1 °F 67% 29.84 in 10.0 mi ESE 11.5 mph - N/A   Clear
1:51 AM 80.1 °F 82.9 °F 69.1 °F 69% 29.84 in 10.0 mi SE 12.7 mph 18.4 mph N/A   Clear
2:51 AM 80.1 °F 83.6 °F 71.1 °F 74% 29.83 in 10.0 mi SSE 11.5 mph - N/A   Clear
3:51 AM 79.0 °F - 71.1 °F 77% 29.84 in 10.0 mi SSE 11.5 mph - 0.00 in   Partly Cloudy
4:51 AM 78.1 °F - 71.1 °F 79% 29.83 in 10.0 mi SE 8.1 mph - N/A   Clear
5:51 AM 78.1 °F - 71.1 °F 79% 29.84 in 10.0 mi SE 9.2 mph - N/A   Scattered Clouds
6:31 AM 78.8 °F - 71.6 °F 78% 29.91 in 10.0 mi SE 8.1 mph - N/A   Mostly Cloudy
6:51 AM 78.1 °F - 71.1 °F 79% 29.87 in 10.0 mi SE 9.2 mph - N/A   Overcast
7:51 AM 79.0 °F - 71.1 °F 77% 29.89 in 10.0 mi East 6.9 mph - N/A   Overcast
8:51 AM 80.1 °F 83.6 °F 71.1 °F 74% 29.90 in 10.0 mi SE 10.4 mph - N/A   Mostly Cloudy
9:51 AM 80.1 °F 83.6 °F 71.1 °F 74% 29.91 in 10.0 mi SE 10.4 mph - N/A   Overcast
10:47 AM 80.6 °F 84.6 °F 71.6 °F 74% 29.97 in 10.0 mi ESE 9.2 mph - N/A   Overcast
10:51 AM 81.0 °F 84.9 °F 71.1 °F 72% 29.92 in 10.0 mi SE 9.2 mph - N/A   Overcast
11:51 AM 81.0 °F 85.2 °F 72.0 °F 74% 29.94 in 9.0 mi SE 6.9 mph - 0.00 in Rain Light Rain
12:51 PM 81.0 °F 85.8 °F 73.0 °F 77% 29.95 in 10.0 mi ESE 4.6 mph - 0.01 in Rain Light Rain
1:51 PM 82.0 °F 87.4 °F 73.0 °F 74% 29.94 in 10.0 mi ESE 4.6 mph - 0.00 in Rain Light Rain
2:51 PM 84.0 °F 89.0 °F 71.1 °F 65% 29.92 in 10.0 mi ENE 6.9 mph - 0.00 in   Overcast
3:51 PM 84.9 °F 90.1 °F 71.1 °F 63% 29.89 in 10.0 mi NE 6.9 mph - 0.00 in   Scattered Clouds
4:51 PM 84.9 °F 89.4 °F 70.0 °F 61% 29.88 in 10.0 mi ENE 10.4 mph - N/A   Scattered Clouds
5:51 PM 81.0 °F 84.4 °F 70.0 °F 69% 29.91 in 10.0 mi East 13.8 mph - 0.00 in Rain Light Rain
6:51 PM 79.0 °F - 66.9 °F 66% 29.91 in 10.0 mi East 10.4 mph - 0.00 in   Clear
7:51 PM 78.1 °F - 68.0 °F 71% 29.93 in 10.0 mi East 10.4 mph - N/A   Clear
8:51 PM 77.0 °F - 70.0 °F 79% 29.95 in 10.0 mi ENE 6.9 mph - N/A   Clear
9:51 PM 78.1 °F - 70.0 °F 76% 29.96 in 10.0 mi ENE 9.2 mph - N/A   Mostly Cloudy
10:51 PM 77.0 °F - 70.0 °F 79% 29.98 in 10.0 mi East 10.4 mph - N/A   Overcast
11:51 PM 77.0 °F - 70.0 °F 79% 29.98 in 10.0 mi East 10.4 mph - N/A   Mostly Cloudy